StationID,Date,MaxTemp,MinTemp,Precipitation,Snowfall,SnowDepth
"CA002202405","1962-05-10",37.94,,0.00,0.00,
"CA002202405","1962-05-11",42.08,26.96,0.00,0.00,
"CA002202405","1962-05-12",57.02,24.98,0.00,0.00,
"CA002202405","1962-05-13",66.02,30.02,,0.00,
"CA002202405","1962-05-14",37.94,26.06,,0.00,
"CA002202405","1962-05-15",51.08,30.02,0.00,0.00,
"CA002202405","1962-05-16",66.02,33.08,0.00,0.00,
"CA002202405","1962-05-17",62.96,35.96,0.00,0.00,
"CA002202405","1962-05-18",51.98,28.04,0.00,0.00,
"CA002202405","1962-05-19",60.98,28.04,0.00,0.00,
"CA002202405","1962-05-20",57.02,33.08,0.00,0.00,
"CA002202405","1962-05-21",46.94,35.06,30.00,0.00,
"CA002202405","1962-05-22",62.06,37.04,0.00,0.00,
"CA002202405","1962-05-23",66.92,35.96,0.00,0.00,
"CA002202405","1962-05-24",68.00,37.04,0.00,0.00,
"CA002202405","1962-05-25",57.92,42.98,0.00,0.00,
"CA002202405","1962-05-26",60.98,30.02,0.00,0.00,
"CA002202405","1962-05-27",66.02,39.02,0.00,0.00,
"CA002202405","1962-05-28",62.06,44.96,0.00,0.00,
"CA002202405","1962-05-29",50.00,42.98,8.00,0.00,
"CA002202405","1962-05-30",59.00,37.94,89.00,0.00,
"CA002202405","1962-05-31",60.08,42.98,0.00,0.00,
"CA002202405","1962-06-01",62.96,37.04,20.00,0.00,
"CA002202405","1962-06-02",60.98,48.02,13.00,0.00,
"CA002202405","1962-06-03",69.08,39.02,20.00,0.00,
"CA002202405","1962-06-04",66.92,51.98,0.00,0.00,
"CA002202405","1962-06-05",64.04,46.94,0.00,0.00,
"CA002202405","1962-06-06",73.04,51.08,0.00,0.00,
"CA002202405","1962-06-07",69.98,51.08,0.00,0.00,
"CA002202405","1962-06-08",71.06,42.98,0.00,0.00,
"CA002202405","1962-06-09",66.02,41.00,0.00,0.00,
"CA002202405","1962-06-10",69.08,46.04,20.00,0.00,
"CA002202405","1962-06-11",64.04,44.96,,0.00,
"CA002202405","1962-06-12",41.00,37.94,,0.00,
"CA002202405","1962-06-13",51.98,37.04,0.00,0.00,
"CA002202405","1962-06-14",64.04,42.08,0.00,0.00,
"CA002202405","1962-06-15",68.00,42.98,15.00,0.00,
"CA002202405","1962-06-16",51.08,42.08,86.00,0.00,
"CA002202405","1962-06-17",62.06,41.00,0.00,0.00,
"CA002202405","1962-06-18",69.98,46.94,0.00,0.00,
"CA002202405","1962-06-19",69.98,44.96,0.00,0.00,
"CA002202405","1962-06-20",66.92,42.08,13.00,0.00,
"CA002202405","1962-06-21",64.04,53.96,18.00,0.00,
"CA002202405","1962-06-22",62.06,46.94,20.00,0.00,
"CA002202405","1962-06-23",62.96,44.06,0.00,0.00,
"CA002202405","1962-06-24",78.08,44.06,0.00,0.00,
"CA002202405","1962-06-25",82.04,51.98,0.00,0.00,
"CA002202405","1962-06-26",66.92,53.06,,0.00,
"CA002202405","1962-06-27",48.92,44.06,,0.00,
"CA002202405","1962-06-28",62.06,42.98,0.00,0.00,
"CA002202405","1962-06-29",71.06,42.08,0.00,0.00,
"CA002202405","1962-06-30",75.02,51.08,56.00,0.00,
"CA002202405","1962-07-01",69.08,48.92,0.00,0.00,
"CA002202405","1962-07-02",60.08,46.04,284.00,0.00,
"CA002202405","1962-07-03",50.00,46.94,241.00,0.00,
"CA002202405","1962-07-04",62.06,46.04,0.00,0.00,
"CA002202405","1962-07-05",69.08,37.94,0.00,0.00,
"CA002202405","1962-07-06",62.06,51.98,13.00,0.00,
"CA002202405","1962-07-07",62.96,44.06,0.00,0.00,
"CA002202405","1962-07-08",62.06,37.94,0.00,0.00,
"CA002202405","1962-07-09",62.96,37.04,0.00,0.00,
"CA002202405","1962-07-10",73.94,42.08,0.00,0.00,
"CA002202405","1962-07-11",78.98,46.04,0.00,0.00,
"CA002202405","1962-07-12",78.08,57.02,0.00,0.00,
"CA002202405","1962-07-13",75.92,55.94,33.00,0.00,
"CA002202405","1962-07-14",69.98,57.02,0.00,0.00,
"CA002202405","1962-07-15",75.92,51.98,28.00,0.00,
"CA002202405","1962-07-16",75.92,53.96,15.00,0.00,
"CA002202405","1962-07-17",78.08,55.04,13.00,0.00,
"CA002202405","1962-07-18",78.08,53.06,0.00,0.00,
"CA002202405","1962-07-19",82.04,55.94,0.00,0.00,
"CA002202405","1962-07-20",84.02,55.04,0.00,0.00,
"CA002202405","1962-07-21",84.02,53.96,0.00,0.00,
"CA002202405","1962-07-22",82.04,55.04,0.00,0.00,
"CA002202405","1962-07-23",75.02,51.98,0.00,0.00,
"CA002202405","1962-07-24",78.98,53.96,0.00,0.00,
"CA002202405","1962-07-25",82.94,57.02,0.00,0.00,
"CA002202405","1962-07-26",75.02,51.08,53.00,0.00,
"CA002202405","1962-07-27",57.92,46.04,0.00,0.00,
"CA002202405","1962-07-28",66.02,46.04,0.00,0.00,
"CA002202405","1962-07-29",69.08,55.94,5.00,0.00,
"CA002202405","1962-07-30",77.00,39.92,0.00,0.00,
"CA002202405","1962-07-31",82.04,55.04,0.00,0.00,
"CA002202405","1962-08-01",75.02,53.96,5.00,0.00,
"CA002202405","1962-08-02",64.94,53.96,0.00,0.00,
"CA002202405","1962-08-03",73.04,37.94,0.00,0.00,
"CA002202405","1962-08-04",80.06,46.94,0.00,0.00,
"CA002202405","1962-08-05",77.00,51.08,0.00,0.00,
"CA002202405","1962-08-06",71.96,60.08,0.00,0.00,
"CA002202405","1962-08-07",69.08,57.92,97.00,0.00,
"CA002202405","1962-08-08",75.92,55.94,5.00,0.00,
"CA002202405","1962-08-09",73.04,48.92,0.00,0.00,
"CA002202405","1962-08-10",73.94,50.00,0.00,0.00,
"CA002202405","1962-08-11",69.98,51.08,0.00,0.00,
"CA002202405","1962-08-12",71.06,50.00,0.00,0.00,
"CA002202405","1962-08-13",68.00,55.04,0.00,0.00,
"CA002202405","1962-08-14",75.92,50.00,0.00,0.00,
"CA002202405","1962-08-15",75.92,46.04,0.00,0.00,
"CA002202405","1962-08-16",75.92,53.06,0.00,0.00,
"CA002202405","1962-08-17",66.02,57.92,66.00,0.00,
"CA002202405","1962-08-18",62.96,51.08,124.00,0.00,
"CA002202405","1962-08-19",62.96,53.06,8.00,0.00,
"CA002202405","1962-08-20",62.96,51.98,0.00,0.00,
"CA002202405","1962-08-21",64.94,48.92,0.00,0.00,
"CA002202405","1962-08-22",60.98,46.94,0.00,0.00,
"CA002202405","1962-08-23",71.96,39.02,25.00,0.00,
"CA002202405","1962-08-24",57.92,50.00,84.00,0.00,
"CA002202405","1962-08-25",60.08,44.96,71.00,0.00,
"CA002202405","1962-08-26",66.92,41.00,0.00,0.00,
"CA002202405","1962-08-27",64.04,42.08,43.00,0.00,
"CA002202405","1962-08-28",57.92,42.08,18.00,0.00,
"CA002202405","1962-08-29",57.92,46.04,0.00,0.00,
"CA002202405","1962-08-30",59.00,37.04,18.00,0.00,
"CA002202405","1962-08-31",57.92,42.08,51.00,0.00,
"CA002202405","1965-09-01",53.96,42.08,0.00,0.00,
"CA002202405","1965-09-02",48.02,32.00,0.00,0.00,
"CA002202405","1965-09-03",46.94,28.04,0.00,0.00,
"CA002202405","1965-09-04",46.04,32.00,15.00,0.00,
"CA002202405","1965-09-05",44.06,30.92,0.00,0.00,
"CA002202405","1965-09-06",44.96,33.08,25.00,0.00,
"CA002202405","1965-09-07",44.96,37.94,0.00,0.00,
"CA002202405","1965-09-08",51.98,30.92,0.00,0.00,
"CA002202405","1965-09-09",48.02,26.96,5.00,0.00,
"CA002202405","1965-09-10",48.02,28.94,0.00,0.00,
"CA002202405","1965-09-11",51.98,24.08,0.00,0.00,
"CA002202405","1965-09-12",44.96,26.06,0.00,0.00,
"CA002202405","1965-09-13",37.94,26.06,51.00,51.00,
"CA002202405","1965-09-14",41.00,30.02,114.00,114.00,
"CA002202405","1965-09-15",48.02,21.92,0.00,0.00,
"CA002202405","1965-09-16",59.00,24.08,0.00,0.00,
"CA002202405","1965-09-17",60.08,37.94,0.00,0.00,
"CA002202405","1965-09-18",55.04,35.06,13.00,0.00,
"CA002202405","1965-09-19",53.96,33.98,0.00,0.00,
"CA002202405","1965-09-20",46.94,32.00,76.00,0.00,
"CA002202405","1965-09-21",37.04,30.92,0.00,0.00,
"CA002202405","1965-09-22",48.02,26.06,0.00,0.00,
"CA002202405","1965-09-23",46.94,30.92,0.00,0.00,
"CA002202405","1965-09-24",35.96,26.96,0.00,0.00,
"CA002202405","1965-09-25",37.94,10.94,0.00,0.00,
"CA002202405","1965-09-26",46.94,17.96,0.00,0.00,
"CA002202405","1965-09-27",55.94,26.06,0.00,0.00,
"CA002202405","1965-09-28",64.04,35.06,0.00,0.00,
"CA002202405","1965-09-29",46.04,33.98,0.00,0.00,
"CA002202405","1965-09-30",37.04,28.04,0.00,0.00,
"CA002202405","1965-10-01",33.98,28.04,0.00,0.00,
"CA002202405","1965-10-02",39.92,21.02,0.00,0.00,
"CA002202405","1965-10-03",51.98,26.96,0.00,0.00,
"CA002202405","1965-10-04",62.96,28.04,0.00,0.00,
"CA002202405","1965-10-05",53.06,41.00,33.00,0.00,
"CA002202405","1965-10-06",44.06,26.96,5.00,0.00,
"CA002202405","1965-10-07",59.00,30.02,0.00,0.00,
"CA002202405","1965-10-08",48.92,28.94,0.00,0.00,
"CA002202405","1965-10-09",39.92,33.08,5.00,0.00,
"CA002202405","1965-10-10",50.00,28.94,0.00,0.00,
"CA002202405","1965-10-11",51.08,26.06,0.00,0.00,
"CA002202405","1965-10-12",53.96,35.96,13.00,0.00,
"CA002202405","1965-10-13",33.08,24.08,0.00,0.00,
"CA002202405","1965-10-14",37.04,19.94,0.00,0.00,
"CA002202405","1965-10-15",35.06,26.06,127.00,127.00,
"CA002202405","1965-10-16",37.94,28.04,5.00,0.00,
"CA002202405","1965-10-17",37.04,28.04,5.00,5.00,
"CA002202405","1965-10-18",33.98,21.92,30.00,30.00,
"CA002202405","1965-10-19",24.98,19.04,0.00,0.00,
"CA002202405","1965-10-20",33.98,5.00,13.00,13.00,
"CA002202405","1965-10-21",33.98,12.92,10.00,0.00,
"CA002202405","1965-10-22",39.92,26.96,0.00,0.00,
"CA002202405","1965-10-23",51.08,28.04,0.00,0.00,
"CA002202405","1965-10-24",44.96,39.02,5.00,0.00,
"CA002202405","1965-10-25",48.92,23.00,0.00,0.00,
"CA002202405","1965-10-26",33.98,23.00,0.00,0.00,
"CA002202405","1965-10-27",42.98,23.00,0.00,0.00,
"CA002202405","1965-10-28",39.92,28.94,0.00,0.00,
"CA002202405","1965-10-29",35.06,24.08,25.00,25.00,
"CA002202405","1965-10-30",15.08,12.02,25.00,25.00,
"CA002202405","1965-10-31",19.94,-0.94,0.00,0.00,
"CA002202405","1965-11-01",23.00,3.92,0.00,0.00,
"CA002202405","1965-11-02",12.02,8.96,0.00,0.00,
"CA002202405","1965-11-03",17.06,5.00,0.00,0.00,
"CA002202405","1965-11-04",21.92,10.04,43.00,43.00,
"CA002202405","1965-11-05",1.94,-5.98,102.00,102.00,
"CA002202405","1965-11-06",14.00,-14.98,0.00,0.00,
"CA002202405","1965-11-07",15.98,-14.98,0.00,0.00,
"CA002202405","1965-11-08",26.06,-5.08,0.00,0.00,
"CA002202405","1965-11-09",28.04,-5.08,0.00,0.00,
"CA002202405","1965-11-10",26.96,19.94,102.00,102.00,
"CA002202405","1965-11-11",17.96,12.92,0.00,0.00,
"CA002202405","1965-11-12",17.06,12.02,0.00,0.00,
"CA002202405","1965-11-13",21.92,5.00,30.00,30.00,
"CA002202405","1965-11-14",21.02,8.06,0.00,0.00,
"CA002202405","1965-11-15",24.98,12.02,0.00,0.00,
"CA002202405","1965-11-16",21.92,15.08,0.00,0.00,
"CA002202405","1965-11-17",1.04,-5.08,0.00,0.00,
"CA002202405","1965-11-18",-0.94,-13.00,0.00,0.00,
"CA002202405","1965-11-19",12.02,-16.06,25.00,25.00,
"CA002202405","1965-11-20",14.00,-4.00,30.00,30.00,
"CA002202405","1965-11-21",15.08,8.06,20.00,20.00,
"CA002202405","1965-11-22",10.04,6.98,18.00,18.00,
"CA002202405","1965-11-23",3.92,-11.92,20.00,20.00,
"CA002202405","1965-11-24",8.06,-4.00,13.00,13.00,
"CA002202405","1965-11-25",8.96,1.94,0.00,0.00,
"CA002202405","1965-11-26",8.06,-22.00,0.00,0.00,
"CA002202405","1965-11-27",15.08,-4.00,0.00,0.00,
"CA002202405","1965-11-28",24.08,-5.98,0.00,0.00,
"CA002202405","1965-11-29",15.98,-7.96,0.00,0.00,
"CA002202405","1965-11-30",17.96,-5.98,0.00,0.00,
"CA002202405","1965-12-01",14.00,-7.96,10.00,10.00,
"CA002202405","1965-12-02",6.98,-2.92,0.00,0.00,
"CA002202405","1965-12-03",12.02,-20.02,114.00,114.00,
"CA002202405","1965-12-04",15.08,-18.04,0.00,0.00,
"CA002202405","1965-12-05",10.04,5.00,0.00,0.00,
"CA002202405","1965-12-06",8.06,1.04,8.00,8.00,
"CA002202405","1965-12-07",10.94,3.92,10.00,10.00,
"CA002202405","1965-12-08",14.00,5.00,10.00,10.00,
"CA002202405","1965-12-09",12.92,3.02,0.00,0.00,
"CA002202405","1965-12-10",17.06,-5.08,0.00,0.00,
"CA002202405","1965-12-11",17.96,-11.02,0.00,0.00,
"CA002202405","1965-12-12",10.04,-9.04,0.00,0.00,
"CA002202405","1965-12-13",6.98,-13.00,0.00,0.00,
"CA002202405","1965-12-14",17.96,-16.06,0.00,0.00,
"CA002202405","1965-12-15",23.00,-5.98,0.00,0.00,
"CA002202405","1965-12-16",12.92,-4.00,0.00,0.00,
"CA002202405","1965-12-17",14.00,-4.00,0.00,0.00,
"CA002202405","1965-12-18",21.92,-11.02,58.00,58.00,
"CA002202405","1965-12-19",19.04,-16.06,10.00,10.00,
"CA002202405","1965-12-20",-0.04,-11.02,0.00,0.00,
"CA002202405","1965-12-21",-2.02,-14.08,0.00,0.00,
"CA002202405","1965-12-22",-2.02,-16.06,0.00,0.00,
"CA002202405","1965-12-23",-0.04,-14.08,76.00,76.00,
"CA002202405","1965-12-24",-5.08,-7.06,51.00,51.00,
"CA002202405","1965-12-25",-5.98,-11.02,0.00,0.00,
"CA002202405","1965-12-26",-9.94,-27.04,0.00,0.00,
"CA002202405","1965-12-27",-25.06,-43.06,0.00,0.00,
"CA002202405","1965-12-28",-20.02,-47.92,0.00,0.00,
"CA002202405","1965-12-29",-23.98,-43.06,0.00,0.00,
"CA002202405","1965-12-30",-32.98,-47.02,0.00,0.00,
"CA002202405","1965-12-31",-18.04,-45.94,23.00,23.00,
"CA002202405","1966-01-01",-29.92,-34.96,5.00,5.00,
"CA002202405","1966-01-02",-32.08,-36.04,0.00,0.00,
"CA002202405","1966-01-03",-40.00,-45.94,0.00,0.00,
"CA002202405","1966-01-04",-38.02,-56.02,0.00,0.00,
"CA002202405","1966-01-05",-41.98,-58.00,0.00,0.00,
"CA002202405","1966-01-06",-11.92,-52.06,15.00,15.00,
"CA002202405","1966-01-07",-23.98,-40.00,0.00,0.00,
"CA002202405","1966-01-08",-25.96,-43.96,0.00,0.00,
"CA002202405","1966-01-09",-29.92,-45.04,0.00,0.00,
"CA002202405","1966-01-10",-14.08,-52.06,0.00,0.00,
"CA002202405","1966-01-11",-14.98,-18.94,25.00,25.00,
"CA002202405","1966-01-12",-23.08,-47.92,0.00,0.00,
"CA002202405","1966-01-13",-2.02,-29.02,18.00,18.00,
"CA002202405","1966-01-14",-7.96,-18.94,0.00,0.00,
"CA002202405","1966-01-15",-14.08,-20.02,0.00,0.00,
"CA002202405","1966-01-16",-16.06,-20.02,25.00,25.00,
"CA002202405","1966-01-17",-11.92,-23.08,127.00,127.00,
"CA002202405","1966-01-18",-16.96,-23.08,25.00,25.00,
"CA002202405","1966-01-19",-25.06,-45.94,0.00,0.00,
"CA002202405","1966-01-20",-25.96,-50.08,0.00,0.00,
"CA002202405","1966-01-21",-29.02,-52.96,0.00,0.00,
"CA002202405","1966-01-22",-29.92,-52.06,0.00,0.00,
"CA002202405","1966-01-23",-34.06,-54.94,0.00,0.00,
"CA002202405","1966-01-24",-16.96,-50.98,3.00,3.00,
"CA002202405","1966-01-25",-23.08,-38.02,0.00,0.00,
"CA002202405","1966-01-26",-34.96,-58.00,0.00,0.00,
"CA002202405","1966-01-27",-25.06,-52.96,0.00,0.00,
"CA002202405","1966-01-28",-16.96,-36.94,0.00,0.00,
"CA002202405","1966-01-29",-4.00,-31.00,51.00,51.00,
"CA002202405","1966-01-30",-7.06,-47.92,0.00,0.00,
"CA002202405","1966-01-31",-2.02,-36.04,25.00,25.00,
"CA002202405","1966-02-01",-9.94,-25.06,0.00,0.00,
"CA002202405","1966-02-02",-5.98,-45.04,0.00,0.00,
"CA002202405","1966-02-03",-5.08,-34.06,0.00,0.00,
"CA002202405","1966-02-04",1.04,-9.94,0.00,0.00,
"CA002202405","1966-02-05",-0.94,-5.98,58.00,58.00,
"CA002202405","1966-02-06",1.04,-31.00,0.00,0.00,
"CA002202405","1966-02-07",6.08,-25.96,0.00,0.00,
"CA002202405","1966-02-08",3.02,-34.06,0.00,0.00,
"CA002202405","1966-02-09",3.02,-20.02,0.00,0.00,
"CA002202405","1966-02-10",24.08,1.04,13.00,13.00,
"CA002202405","1966-02-11",5.00,,0.00,0.00,
"CA002202405","1966-02-12",-5.98,-38.02,0.00,0.00,
"CA002202405","1966-02-13",-11.92,-38.02,0.00,0.00,
"CA002202405","1966-02-14",-9.94,-36.94,0.00,0.00,
"CA002202405","1966-02-15",-14.98,-49.00,0.00,0.00,
"CA002202405","1966-02-16",-11.02,-50.98,0.00,0.00,
"CA002202405","1966-02-17",-9.94,-47.02,0.00,0.00,
"CA002202405","1966-02-18",-7.96,-43.96,0.00,0.00,
"CA002202405","1966-02-19",-4.00,-47.92,20.00,20.00,
"CA002202405","1966-02-20",-2.02,-9.94,5.00,5.00,
"CA002202405","1966-02-21",19.94,-34.06,0.00,0.00,
"CA002202405","1966-02-22",21.92,-2.92,0.00,0.00,
"CA002202405","1966-02-23",35.96,-0.94,0.00,0.00,
"CA002202405","1966-02-24",39.92,26.96,0.00,0.00,
"CA002202405","1966-02-25",42.98,21.02,0.00,0.00,
"CA002202405","1966-02-26",37.94,10.04,0.00,0.00,
"CA002202405","1966-02-27",30.92,-0.04,0.00,0.00,
"CA002202405","1966-02-28",8.96,5.00,0.00,0.00,
"CA002202405","1966-03-01",-0.94,-20.02,0.00,0.00,
"CA002202405","1966-03-02",3.92,-32.08,0.00,0.00,
"CA002202405","1966-03-03",12.02,-27.94,0.00,0.00,
"CA002202405","1966-03-04",1.94,-27.04,0.00,0.00,
"CA002202405","1966-03-05",-0.04,-29.02,8.00,8.00,
"CA002202405","1966-03-06",-2.92,-18.04,0.00,0.00,
"CA002202405","1966-03-07",-9.94,-32.08,0.00,0.00,
"CA002202405","1966-03-08",10.04,-23.08,0.00,0.00,
"CA002202405","1966-03-09",8.06,-9.94,25.00,25.00,
"CA002202405","1966-03-10",3.92,-9.04,38.00,38.00,
"CA002202405","1966-03-11",-11.02,-20.92,0.00,0.00,
"CA002202405","1966-03-12",-0.04,-41.08,0.00,0.00,
"CA002202405","1966-03-13",30.92,-20.02,0.00,0.00,
"CA002202405","1966-03-14",26.06,-2.02,0.00,0.00,
"CA002202405","1966-03-15",30.92,1.94,18.00,18.00,
"CA002202405","1966-03-16",21.92,19.04,46.00,46.00,
"CA002202405","1966-03-17",17.96,8.96,8.00,8.00,
"CA002202405","1966-03-18",28.04,-11.92,0.00,0.00,
"CA002202405","1966-03-19",21.92,6.98,38.00,38.00,
"CA002202405","1966-03-20",8.06,5.00,51.00,51.00,
"CA002202405","1966-03-21",-9.94,-36.04,0.00,0.00,
"CA002202405","1966-03-22",12.02,-41.08,0.00,0.00,
"CA002202405","1966-03-23",21.92,-9.94,20.00,20.00,
"CA002202405","1966-03-24",26.96,-9.04,0.00,0.00,
"CA002202405","1966-03-25",42.08,-7.06,0.00,0.00,
"CA002202405","1966-03-26",48.92,14.00,0.00,0.00,
"CA002202405","1966-03-27",46.94,28.94,0.00,0.00,
"CA002202405","1966-03-28",55.94,12.02,0.00,0.00,
"CA002202405","1966-03-29",57.92,24.08,0.00,0.00,
"CA002202405","1966-03-30",51.08,32.00,0.00,0.00,
"CA002202405","1966-03-31",44.06,21.92,0.00,0.00,
"CA002202405","1966-04-01",32.00,15.08,51.00,51.00,
"CA002202405","1966-04-02",21.92,3.92,0.00,0.00,
"CA002202405","1966-04-03",48.92,14.00,0.00,0.00,
"CA002202405","1966-04-04",51.98,8.06,0.00,0.00,
"CA002202405","1966-04-05",42.98,30.02,0.00,0.00,
"CA002202405","1966-04-06",42.98,32.00,20.00,20.00,
"CA002202405","1966-04-07",26.96,19.94,30.00,30.00,
"CA002202405","1966-04-08",24.98,1.94,13.00,13.00,
"CA002202405","1966-04-09",5.00,-4.00,8.00,8.00,
"CA002202405","1966-04-10",17.06,-2.92,25.00,25.00,
"CA002202405","1966-04-11",17.06,-0.94,25.00,25.00,
"CA002202405","1966-04-12",26.96,-5.98,38.00,38.00,
"CA002202405","1966-04-13",17.96,,51.00,51.00,
"CA002202405","1966-04-14",8.06,-11.92,76.00,76.00,
"CA002202405","1966-04-15",8.96,-2.92,0.00,0.00,
"CA002202405","1966-04-16",14.00,-11.92,0.00,0.00,
"CA002202405","1966-04-17",19.94,-18.94,0.00,0.00,
"CA002202405","1966-04-18",24.98,-20.92,0.00,0.00,
"CA002202405","1966-04-19",39.02,-0.04,0.00,0.00,
"CA002202405","1966-04-20",44.96,10.94,0.00,0.00,
"CA002202405","1966-04-21",51.08,21.92,0.00,0.00,
"CA002202405","1966-04-22",46.94,21.92,25.00,25.00,
"CA002202405","1966-04-23",21.02,6.98,0.00,0.00,
"CA002202405","1966-04-24",35.96,-9.04,0.00,0.00,
"CA002202405","1966-04-25",39.92,1.04,38.00,38.00,
"CA002202405","1966-04-26",8.96,1.04,0.00,0.00,
"CA002202405","1966-04-27",15.08,-22.00,0.00,0.00,
"CA002202405","1966-04-28",15.98,-18.94,0.00,0.00,
"CA002202405","1966-04-29",26.96,-14.98,0.00,0.00,
"CA002202405","1966-04-30",42.08,-7.96,0.00,0.00,
"CA002202405","1966-05-01",37.94,12.92,0.00,0.00,
"CA002202405","1966-05-02",42.08,8.06,0.00,0.00,
"CA002202405","1966-05-03",53.96,26.96,0.00,0.00,
"CA002202405","1966-05-04",55.94,37.04,0.00,0.00,
"CA002202405","1966-05-05",55.04,26.96,0.00,0.00,
"CA002202405","1966-05-06",71.06,30.02,0.00,0.00,
"CA002202405","1966-05-07",69.98,37.94,0.00,0.00,
"CA002202405","1966-05-08",77.00,44.06,0.00,0.00,
"CA002202405","1966-05-09",71.96,35.96,0.00,0.00,
"CA002202405","1966-05-10",64.04,44.96,0.00,0.00,
"CA002202405","1966-05-11",64.04,33.98,0.00,0.00,
"CA002202405","1966-05-12",73.04,35.06,0.00,0.00,
"CA002202405","1966-05-13",60.98,37.94,0.00,0.00,
"CA002202405","1966-05-14",57.92,33.98,0.00,0.00,
"CA002202405","1966-05-15",57.92,37.94,0.00,0.00,
"CA002202405","1966-05-16",57.02,39.92,0.00,0.00,
"CA002202405","1966-05-17",53.96,32.00,0.00,0.00,
"CA002202405","1966-05-18",55.94,30.02,0.00,0.00,
"CA002202405","1966-05-19",62.06,44.06,15.00,0.00,
"CA002202405","1966-05-20",60.08,35.96,0.00,0.00,
"CA002202405","1966-05-21",57.02,33.08,0.00,0.00,
"CA002202405","1966-05-22",53.96,37.04,0.00,0.00,
"CA002202405","1966-05-23",62.06,33.98,0.00,0.00,
"CA002202405","1966-05-24",51.98,39.92,10.00,0.00,
"CA002202405","1966-05-25",62.06,30.02,0.00,0.00,
"CA002202405","1966-05-26",71.06,44.06,8.00,0.00,
"CA002202405","1966-05-27",62.06,51.98,5.00,0.00,
"CA002202405","1966-05-28",66.02,35.06,0.00,0.00,
"CA002202405","1966-05-29",60.98,39.02,38.00,0.00,
"CA002202405","1966-05-30",53.96,37.94,0.00,0.00,
"CA002202405","1966-05-31",55.94,28.94,0.00,0.00,
"CA002202405","1966-06-01",64.94,28.94,0.00,0.00,
"CA002202405","1966-06-02",53.96,44.06,25.00,0.00,
"CA002202405","1966-06-03",51.08,41.00,36.00,0.00,
"CA002202405","1966-06-04",50.00,35.96,0.00,0.00,
"CA002202405","1966-06-05",53.96,28.04,0.00,0.00,
"CA002202405","1966-06-06",60.08,28.94,0.00,0.00,
"CA002202405","1966-06-07",66.92,41.00,0.00,0.00,
"CA002202405","1966-06-08",68.00,46.04,0.00,0.00,
"CA002202405","1966-06-09",69.98,35.06,0.00,0.00,
"CA002202405","1966-06-10",69.98,44.06,0.00,0.00,
"CA002202405","1966-06-11",78.98,42.98,0.00,0.00,
"CA002202405","1966-06-12",80.06,44.96,15.00,0.00,
"CA002202405","1966-06-13",71.06,48.92,0.00,0.00,
"CA002202405","1966-06-14",73.04,33.98,0.00,0.00,
"CA002202405","1966-06-15",84.02,39.02,0.00,0.00,
"CA002202405","1966-06-16",84.92,48.02,0.00,0.00,
"CA002202405","1966-06-17",87.98,51.08,0.00,0.00,
"CA002202405","1966-06-18",82.94,55.04,0.00,0.00,
"CA002202405","1966-06-19",77.00,55.04,18.00,0.00,
"CA002202405","1966-06-20",73.94,42.08,0.00,0.00,
"CA002202405","1966-06-21",53.96,44.96,152.00,0.00,
"CA002202405","1966-06-22",59.00,44.96,0.00,0.00,
"CA002202405","1966-06-23",62.06,44.96,25.00,0.00,
"CA002202405","1966-06-24",66.92,42.98,0.00,0.00,
"CA002202405","1966-06-25",75.02,39.92,0.00,0.00,
"CA002202405","1966-06-26",75.92,42.98,0.00,0.00,
"CA002202405","1966-06-27",71.96,46.04,3.00,0.00,
"CA002202405","1966-06-28",75.92,44.96,0.00,0.00,
"CA002202405","1966-06-29",59.00,51.98,206.00,0.00,
"CA002202405","1966-06-30",59.00,50.00,3.00,0.00,
"CA002202405","1966-07-01",73.94,44.06,0.00,0.00,
"CA002202405","1966-07-02",78.98,39.92,0.00,0.00,
"CA002202405","1966-07-03",64.94,48.92,0.00,0.00,
"CA002202405","1966-07-04",78.98,51.98,0.00,0.00,
"CA002202405","1966-07-05",82.04,51.08,10.00,0.00,
"CA002202405","1966-07-06",82.94,57.02,0.00,0.00,
"CA002202405","1966-07-07",82.94,55.94,0.00,0.00,
"CA002202405","1966-07-08",77.00,44.06,89.00,0.00,
"CA002202405","1966-07-09",73.94,48.92,0.00,0.00,
"CA002202405","1966-07-10",64.94,51.08,0.00,0.00,
"CA002202405","1966-07-11",75.92,46.94,0.00,0.00,
"CA002202405","1966-07-12",78.98,44.06,0.00,0.00,
"CA002202405","1966-07-13",77.00,55.04,0.00,0.00,
"CA002202405","1966-07-14",77.00,48.02,0.00,0.00,
"CA002202405","1966-07-15",78.98,46.94,0.00,0.00,
"CA002202405","1966-07-16",82.94,51.98,38.00,0.00,
"CA002202405","1966-07-17",73.94,55.94,0.00,0.00,
"CA002202405","1966-07-18",82.04,51.98,0.00,0.00,
"CA002202405","1966-07-19",84.02,59.00,25.00,0.00,
"CA002202405","1966-07-20",66.02,53.06,53.00,0.00,
"CA002202405","1966-07-21",60.98,42.08,13.00,0.00,
"CA002202405","1966-07-22",64.94,41.00,0.00,0.00,
"CA002202405","1966-07-23",60.08,48.02,5.00,0.00,
"CA002202405","1966-07-24",71.96,37.94,0.00,0.00,
"CA002202405","1966-07-25",73.04,41.00,0.00,0.00,
"CA002202405","1966-07-26",73.04,48.02,13.00,0.00,
"CA002202405","1966-07-27",59.00,39.92,5.00,0.00,
"CA002202405","1966-07-28",62.06,33.98,0.00,0.00,
"CA002202405","1966-07-29",59.00,37.94,0.00,0.00,
"CA002202405","1966-07-30",71.96,44.96,0.00,0.00,
"CA002202405","1966-07-31",,44.96,0.00,0.00,
"CA002202405","1966-08-01",69.98,42.08,0.00,0.00,
"CA002202405","1966-08-02",69.98,48.92,0.00,0.00,
"CA002202405","1966-08-03",75.92,44.96,20.00,0.00,
"CA002202405","1966-08-04",71.96,46.04,0.00,0.00,
"CA002202405","1966-08-05",75.02,42.08,0.00,0.00,
"CA002202405","1966-08-06",78.98,46.94,0.00,0.00,
"CA002202405","1966-08-07",82.04,48.02,0.00,0.00,
"CA002202405","1966-08-08",84.02,51.98,0.00,0.00,
"CA002202405","1966-08-09",82.94,59.00,0.00,0.00,
"CA002202405","1966-08-10",75.02,42.08,0.00,0.00,
"CA002202405","1966-08-11",60.98,42.08,0.00,0.00,
"CA002202405","1966-08-12",51.98,35.06,0.00,0.00,
"CA002202405","1966-08-13",59.00,37.94,0.00,0.00,
"CA002202405","1966-08-14",57.92,42.08,51.00,0.00,
"CA002202405","1966-08-15",57.02,26.96,0.00,0.00,
"CA002202405","1966-08-16",62.96,28.94,0.00,0.00,
"CA002202405","1966-08-17",64.04,35.06,0.00,0.00,